Weather History for KFLY - August, 2012

Change the Weather History Date:

Sunday, August 5, 2012

  Actual Average (KCOS) Record (KCOS)
Temperature  
Mean Temperature 67 °F 70 °F  
Max Temperature 82 °F 83 °F 93 °F (1960)
Min Temperature 52 °F 57 °F 46 °F (1928)
Degree Days  
Heating Degree Days 0 0  
Month to date heating degree days 0  
Since 1 June heating degree days 89  
Since 1 July heating degree days 10  
Cooling Degree Days 2 5  
Month to date cooling degree days 28  
Year to date cooling degree days 312  
Since 1 June cooling degree days 302  
Growing Degree Days 17 (Base 50)    
Moisture  
Dew Point 46 °F    
Average Humidity 50    
Maximum Humidity 75    
Minimum Humidity 25    
Precipitation  
Precipitation 0.00 in 0.12 in 1.17 in (1930)
Month to date precipitation 0.60  
Year to date precipitation 11.05  
Snow  
Snow 0.00 in 0.00 in 0.00 in (2002)
Month to date snowfall 0.0  
Since 1 June snowfall 0.0  
Since 1 July snowfall 0.0  
Snow Depth -    
Sea Level Pressure  
Sea Level Pressure 30.43 in    
Wind  
Wind Speed 10 mph (South)    
Max Wind Speed 21 mph    
Max Gust Speed 28 mph    
Visibility 10 miles    
Events      
T = Trace of Precipitation, MM = Missing Value Source: NWS Daily Summary

Daily Weather History Graph

Daily Weather History Graph

Search for Another Location

Airport or City:

Trip Planner

Search our weather history database for the weather conditions in past years. The results will help you decide how hot, cold, wet, or windy it might be!

Date:

Astronomy

Aug. 05, 2012 Rise Set
Actual Time 6:03 AM MDT 8:04 PM MDT
Civil Twilight 5:33 AM MDT 8:33 PM MDT
Nautical Twilight 4:58 AM MDT 9:09 PM MDT
Astronomical Twilight 4:19 AM MDT 9:47 PM MDT
Moon 9:47 PM MDT (8/5) 9:51 AM MDT (8/5)
Length of Visible Light 14h 59m
Length of Day
14h 01m
Waning Gibbous, 86% of the Moon is Illuminated
Aug 5
Waning Gibbous
Aug 9
Last Quarter
Aug 17
New
Aug 24
First Quarter
Aug 31
Full

Hourly Weather History & Observations

Time (MDT) Temp. Dew Point Humidity Pressure Visibility Wind Dir Wind Speed Gust Speed Precip Events Conditions
12:14 AM 56.5 °F 44.8 °F 65% 30.45 in 10.0 mi SSW 11.5 mph 16.1 mph N/A   Clear
12:34 AM 56.7 °F 44.6 °F 64% 30.45 in 10.0 mi SSE 6.9 mph - N/A   Clear
12:54 AM 55.4 °F 44.8 °F 67% 30.45 in 10.0 mi Calm Calm - N/A   Clear
1:14 AM 54.9 °F 44.6 °F 68% 30.45 in 10.0 mi SSW 4.6 mph - N/A   Clear
1:34 AM 54.9 °F 44.8 °F 69% 30.45 in 10.0 mi WSW 6.9 mph - N/A   Clear
1:54 AM 54.1 °F 44.8 °F 71% 30.46 in 10.0 mi SW 6.9 mph - N/A   Clear
2:14 AM 53.6 °F 45.1 °F 73% 30.46 in 10.0 mi WSW 8.1 mph - N/A   Clear
2:34 AM 54.0 °F 45.0 °F 72% 30.45 in 10.0 mi SW 8.1 mph - N/A   Clear
2:54 AM 53.2 °F 44.6 °F 72% 30.45 in 10.0 mi WSW 4.6 mph - N/A   Clear
3:14 AM 52.7 °F 45.0 °F 75% 30.45 in 10.0 mi WSW 4.6 mph - N/A   Clear
3:34 AM 53.1 °F 44.6 °F 73% 30.45 in 10.0 mi SSW 5.8 mph - N/A   Clear
3:54 AM 54.3 °F 45.0 °F 71% 30.45 in 10.0 mi SSW 13.8 mph 18.4 mph N/A   Clear
4:14 AM 54.9 °F 44.8 °F 69% 30.45 in 10.0 mi SSW 9.2 mph 17.3 mph N/A   Clear
4:34 AM 54.1 °F 44.6 °F 70% 30.45 in 10.0 mi SSW 9.2 mph 18.4 mph N/A   Clear
4:53 AM 54.3 °F 44.6 °F 70% 30.46 in 10.0 mi SSW 8.1 mph 17.3 mph N/A   Clear
5:14 AM 53.1 °F 44.6 °F 73% 30.45 in 10.0 mi SSW 8.1 mph - N/A   Clear
5:34 AM 53.2 °F 44.6 °F 72% 30.45 in 10.0 mi SSW 6.9 mph - N/A   Clear
5:54 AM 53.1 °F 44.2 °F 72% 30.46 in 10.0 mi SSW 5.8 mph - N/A   Clear
6:14 AM 52.7 °F 44.6 °F 74% 30.46 in 10.0 mi South 6.9 mph - N/A   Clear
6:33 AM 53.6 °F 45.0 °F 73% 30.46 in 10.0 mi South 8.1 mph - N/A   Clear
6:54 AM 54.9 °F 45.7 °F 71% 30.46 in 10.0 mi South 12.7 mph - N/A   Clear
7:14 AM 57.2 °F 46.6 °F 68% 30.46 in 10.0 mi South 12.7 mph 16.1 mph N/A   Clear
7:34 AM 58.6 °F 47.3 °F 66% 30.46 in 10.0 mi South 18.4 mph - N/A   Clear
7:54 AM 60.8 °F 47.5 °F 62% 30.46 in 10.0 mi South 20.7 mph - N/A   Clear
8:14 AM 62.8 °F 47.3 °F 57% 30.47 in 10.0 mi South 15.0 mph 20.7 mph N/A   Clear
8:34 AM 64.4 °F 46.9 °F 53% 30.47 in 10.0 mi SSW 17.3 mph 20.7 mph N/A   Clear
8:54 AM 65.5 °F 46.8 °F 51% 30.46 in 10.0 mi South 18.4 mph 24.2 mph N/A   Clear
9:14 AM 66.6 °F 47.3 °F 50% 30.47 in 10.0 mi South 15.0 mph 25.3 mph N/A   Clear
9:34 AM 67.5 °F 46.8 °F 47% 30.47 in 10.0 mi South 16.1 mph 24.2 mph N/A   Clear
9:54 AM 68.9 °F 45.7 °F 43% 30.47 in 10.0 mi South 16.1 mph 26.5 mph N/A   Clear
10:14 AM 70.0 °F 45.5 °F 41% 30.47 in 10.0 mi SSW 15.0 mph 25.3 mph N/A   Clear
10:34 AM 71.6 °F 46.2 °F 40% 30.47 in 10.0 mi South 17.3 mph 26.5 mph N/A   Clear
10:54 AM 72.1 °F 46.4 °F 40% 30.47 in 10.0 mi SSW 16.1 mph 24.2 mph N/A   Clear
11:14 AM 72.7 °F 47.3 °F 40% 30.47 in 10.0 mi South 15.0 mph 24.2 mph N/A   Clear
11:34 AM 73.6 °F 47.5 °F 39% 30.47 in 10.0 mi SSW 13.8 mph 27.6 mph N/A   Clear
11:54 AM 73.9 °F 47.7 °F 39% 30.46 in 10.0 mi South 11.5 mph 24.2 mph N/A   Clear
12:14 PM 75.0 °F 47.3 °F 37% 30.46 in 10.0 mi South 12.7 mph 25.3 mph N/A   Clear
12:34 PM 76.1 °F 47.7 °F 37% 30.45 in 10.0 mi South 13.8 mph 23.0 mph N/A   Clear
12:54 PM 77.0 °F 47.5 °F 35% 30.44 in 10.0 mi SSW 8.1 mph 19.6 mph N/A   Clear
1:13 PM 77.0 °F 47.3 °F 35% 30.44 in 10.0 mi South 15.0 mph 25.3 mph N/A   Clear
1:34 PM 77.7 °F 47.5 °F 34% 30.43 in 10.0 mi South 10.4 mph 16.1 mph N/A   Clear
1:53 PM 78.3 °F 47.1 °F 33% 30.43 in 10.0 mi South 8.1 mph 26.5 mph N/A   Clear
2:13 PM 79.0 °F 46.6 °F 32% 30.43 in 10.0 mi South 12.7 mph 18.4 mph N/A   Clear
2:33 PM 80.1 °F 47.3 °F 32% 30.42 in 10.0 mi South 11.5 mph 19.6 mph N/A   Clear
2:53 PM 81.0 °F 46.6 °F 30% 30.41 in 10.0 mi South 10.4 mph 19.6 mph N/A   Clear
3:13 PM 81.5 °F 46.9 °F 30% 30.40 in 10.0 mi South 11.5 mph 18.4 mph N/A   Clear
3:33 PM 81.7 °F 46.2 °F 29% 30.39 in 10.0 mi SSE 13.8 mph 21.9 mph N/A   Clear
3:53 PM 81.9 °F 44.8 °F 27% 30.39 in 5.0 mi South 10.4 mph 19.6 mph N/A   Haze
4:13 PM 81.9 °F 45.0 °F 27% 30.39 in 10.0 mi South 13.8 mph 21.9 mph N/A   Clear
4:33 PM 81.7 °F 43.0 °F 25% 30.38 in 10.0 mi South 10.4 mph 19.6 mph N/A   Clear
4:53 PM 82.0 °F 43.7 °F 26% 30.38 in 10.0 mi SSE 17.3 mph 23.0 mph N/A   Clear
5:13 PM 81.7 °F 43.0 °F 25% 30.38 in 10.0 mi South 15.0 mph 24.2 mph N/A   Clear
5:33 PM 79.2 °F 42.8 °F 27% 30.38 in 10.0 mi South 15.0 mph 21.9 mph N/A   Clear
5:53 PM 78.4 °F 43.5 °F 29% 30.38 in 10.0 mi South 9.2 mph 17.3 mph N/A   Clear
6:13 PM 78.1 °F 43.5 °F 29% 30.39 in 10.0 mi South 12.7 mph 17.3 mph N/A   Clear
6:33 PM 77.2 °F 42.8 °F 29% 30.39 in 10.0 mi South 10.4 mph 20.7 mph N/A   Clear
6:53 PM 76.3 °F 44.8 °F 33% 30.39 in 10.0 mi South 12.7 mph - N/A   Clear
7:13 PM 76.5 °F 44.8 °F 32% 30.38 in 10.0 mi South 15.0 mph - N/A   Clear
7:33 PM 74.7 °F 45.0 °F 35% 30.38 in 10.0 mi South 15.0 mph - N/A   Clear
7:53 PM 72.3 °F 46.2 °F 39% 30.38 in 10.0 mi South 15.0 mph - N/A   Clear
8:13 PM 70.5 °F 46.6 °F 42% 30.38 in 10.0 mi South 11.5 mph - N/A   Clear
8:34 PM 68.4 °F 46.8 °F 46% 30.38 in 10.0 mi South 10.4 mph - N/A   Clear
8:54 PM 67.3 °F 46.9 °F 48% 30.39 in 10.0 mi South 12.7 mph - N/A   Clear
9:14 PM 67.3 °F 46.8 °F 48% 30.40 in 10.0 mi South 11.5 mph - N/A   Clear
9:34 PM 68.0 °F 46.6 °F 46% 30.40 in 10.0 mi South 9.2 mph - N/A   Clear
9:54 PM 67.1 °F 47.5 °F 49% 30.40 in 10.0 mi SSE 6.9 mph - N/A   Clear
10:13 PM 64.9 °F 48.6 °F 55% 30.40 in 10.0 mi SSW 10.4 mph - N/A   Clear
10:34 PM 65.5 °F 48.7 °F 55% 30.40 in 10.0 mi Calm Calm - N/A   Clear
10:54 PM 63.7 °F 49.8 °F 61% 30.40 in 10.0 mi West 9.2 mph - N/A   Clear
11:14 PM 64.4 °F 49.6 °F 59% 30.40 in 10.0 mi Calm Calm - N/A   Clear
11:34 PM 63.1 °F 50.2 °F 63% 30.40 in 10.0 mi NNE 8.1 mph - N/A   Clear
11:54 PM 61.0 °F 51.1 °F 70% 30.40 in 10.0 mi WNW 5.8 mph - N/A   Clear